Weather History for K2G4 - October, 2012

Change the Weather History Date:

Wednesday, October 3, 2012

  Actual Average (KMGW) Record (KMGW)
Temperature  
Mean Temperature 64 °F 58 °F  
Max Temperature 68 °F 69 °F 90 °F (1951)
Min Temperature 59 °F 48 °F 28 °F (2003)
Degree Days  
Heating Degree Days 2 7  
Month to date heating degree days 21  
Since 1 July heating degree days 118  
Cooling Degree Days 0 1  
Month to date cooling degree days 3  
Year to date cooling degree days 804  
Growing Degree Days 14 (Base 50)    
Moisture  
Dew Point 61 °F    
Average Humidity 95    
Maximum Humidity 100    
Minimum Humidity 73    
Precipitation  
Precipitation 0.00 in 0.10 in 1.07 in (1961)
Month to date precipitation 0.28  
Year to date precipitation 32.96  
Sea Level Pressure  
Sea Level Pressure 30.14 in    
Wind  
Wind Speed 5 mph (WSW)    
Max Wind Speed 12 mph    
Max Gust Speed 16 mph    
Visibility 9 miles    
Events Fog    
T = Trace of Precipitation, MM = Missing Value Source: NWS Daily Summary

Daily Weather History Graph

Daily Weather History Graph

Search for Another Location

Airport or City:

Trip Planner

Search our weather history database for the weather conditions in past years. The results will help you decide how hot, cold, wet, or windy it might be!

Date:

Astronomy

Oct. 03, 2012 Rise Set
Actual Time 7:15 AM EDT 6:55 PM EDT
Civil Twilight 6:49 AM EDT 7:22 PM EDT
Nautical Twilight 6:17 AM EDT 7:53 PM EDT
Astronomical Twilight 5:46 AM EDT 8:25 PM EDT
Moon 8:47 PM EDT (10/3) 10:36 AM EDT (10/3)
Length of Visible Light 12h 33m
Length of Day
11h 39m
Waning Gibbous, 89% of the Moon is Illuminated
Oct 3
Waning Gibbous
Oct 8
Last Quarter
Oct 15
New
Oct 21
First Quarter
Oct 29
Full

Hourly Weather History & Observations

Time (EDT) Temp. Dew Point Humidity Pressure Visibility Wind Dir Wind Speed Gust Speed Precip Events Conditions
12:10 AM 59.0 °F 59.0 °F 100% 30.00 in 0.2 mi SSE 8.1 mph - N/A Fog Fog
12:30 AM 59.0 °F 59.0 °F 100% 30.00 in 0.2 mi SSE 8.1 mph - N/A Fog Fog
12:50 AM 59.0 °F 59.0 °F 100% 30.00 in 0.2 mi South 8.1 mph - N/A Fog Fog
1:15 AM 59.0 °F 59.0 °F 100% 30.01 in 1.5 mi South 6.9 mph - N/A   Mist
1:35 AM 59.0 °F 59.0 °F 100% 30.01 in 2.5 mi South 6.9 mph - N/A   Clear
1:55 AM 59.0 °F 59.0 °F 100% 30.02 in 7.0 mi South 6.9 mph - N/A   Clear
2:40 AM 59.0 °F 59.0 °F 100% 30.02 in 10.0 mi SSW 6.9 mph - N/A   Clear
3:00 AM 60.8 °F 60.8 °F 100% 30.03 in 10.0 mi SSW 8.1 mph - N/A   Clear
3:20 AM 60.8 °F 60.8 °F 100% 30.03 in 10.0 mi SSW 11.5 mph - N/A   Clear
4:05 AM 60.8 °F 60.8 °F 100% 30.04 in 10.0 mi SW 9.2 mph - N/A   Overcast
4:45 AM 60.8 °F 60.8 °F 100% 30.06 in 10.0 mi WSW 6.9 mph 16.1 mph N/A   Overcast
5:10 AM 60.8 °F 60.8 °F 100% 30.07 in 10.0 mi West 8.1 mph - N/A   Overcast
5:30 AM 60.8 °F 60.8 °F 100% 30.09 in 10.0 mi WSW 4.6 mph - N/A   Overcast
5:50 AM 60.8 °F 60.8 °F 100% 30.10 in 10.0 mi WSW 6.9 mph - N/A   Overcast
6:10 AM 60.8 °F 60.8 °F 100% 30.10 in 10.0 mi West 4.6 mph - N/A   Scattered Clouds
6:35 AM 60.8 °F 60.8 °F 100% 30.10 in 10.0 mi West 4.6 mph - N/A   Clear
6:55 AM 60.8 °F 60.8 °F 100% 30.11 in 10.0 mi West 4.6 mph - N/A   Clear
7:35 AM 60.8 °F 60.8 °F 100% 30.12 in 10.0 mi West 4.6 mph - N/A   Overcast
8:00 AM 60.8 °F 60.8 °F 100% 30.13 in 10.0 mi WSW 3.5 mph - N/A   Scattered Clouds
8:40 AM 60.8 °F 60.8 °F 100% 30.14 in 10.0 mi Calm Calm - N/A   Overcast
9:00 AM 60.8 °F 60.8 °F 100% 30.14 in 10.0 mi Calm Calm - N/A   Scattered Clouds
9:25 AM 60.8 °F 60.8 °F 100% 30.15 in 10.0 mi West 3.5 mph - N/A   Clear
9:45 AM 60.8 °F 60.8 °F 100% 30.17 in 10.0 mi WSW 3.5 mph - N/A   Clear
10:05 AM 60.8 °F 60.8 °F 100% 30.16 in 10.0 mi Calm Calm - N/A   Clear
10:25 AM 62.6 °F 62.6 °F 100% 30.17 in 10.0 mi WSW 4.6 mph - N/A   Scattered Clouds
10:50 AM 62.6 °F 62.6 °F 100% 30.18 in 10.0 mi WSW 3.5 mph - N/A   Scattered Clouds
11:30 AM 62.6 °F 62.6 °F 100% 30.16 in 10.0 mi Calm Calm - N/A   Scattered Clouds
11:50 AM 64.4 °F 62.6 °F 94% 30.17 in 10.0 mi SW 4.6 mph - N/A   Mostly Cloudy
12:15 PM 64.4 °F 62.6 °F 94% 30.18 in 10.0 mi SW 4.6 mph - N/A   Overcast
12:35 PM 64.4 °F 64.4 °F 100% 30.18 in 10.0 mi WSW 8.1 mph - N/A   Overcast
12:55 PM 62.6 °F 62.6 °F 100% 30.18 in 10.0 mi West 5.8 mph - N/A   Overcast
1:15 PM 66.2 °F 62.6 °F 88% 30.18 in 10.0 mi West 4.6 mph - N/A   Mostly Cloudy
2:00 PM 66.2 °F 60.8 °F 83% 30.17 in 10.0 mi West 5.8 mph - N/A   Scattered Clouds
2:20 PM 66.2 °F 60.8 °F 83% 30.17 in 10.0 mi West 6.9 mph - N/A   Scattered Clouds
2:40 PM 68.0 °F 62.6 °F 83% 30.16 in 10.0 mi WNW 5.8 mph - N/A   Mostly Cloudy
3:05 PM 68.0 °F 60.8 °F 78% 30.17 in 10.0 mi WNW 4.6 mph - N/A   Mostly Cloudy
3:25 PM 66.2 °F 60.8 °F 83% 30.16 in 10.0 mi West 4.6 mph - N/A   Mostly Cloudy
3:45 PM 68.0 °F 60.8 °F 78% 30.17 in 10.0 mi WSW 4.6 mph - N/A   Mostly Cloudy
4:05 PM 66.2 °F 60.8 °F 83% 30.17 in 10.0 mi WSW 4.6 mph - N/A   Scattered Clouds
4:30 PM 66.2 °F 60.8 °F 83% 30.17 in 10.0 mi Calm Calm - N/A   Clear
4:50 PM 66.2 °F 60.8 °F 83% 30.17 in 10.0 mi Calm Calm - N/A   Scattered Clouds
5:10 PM 66.2 °F 60.8 °F 83% 30.17 in 10.0 mi West 3.5 mph - N/A   Scattered Clouds
5:30 PM 66.2 °F 60.8 °F 83% 30.17 in 10.0 mi West 3.5 mph - N/A   Scattered Clouds
5:55 PM 68.0 °F 59.0 °F 73% 30.18 in 10.0 mi West 3.5 mph - N/A   Clear
6:15 PM 64.4 °F 60.8 °F 88% 30.18 in 10.0 mi WSW 3.5 mph - N/A   Clear
7:20 PM 62.6 °F 60.8 °F 94% 30.19 in 10.0 mi Calm Calm - N/A   Clear
7:40 PM 62.6 °F 60.8 °F 94% 30.19 in 10.0 mi Calm Calm - N/A   Clear
8:00 PM 62.6 °F 60.8 °F 94% 30.20 in 10.0 mi WSW 3.5 mph - N/A   Mostly Cloudy
8:20 PM 62.6 °F 60.8 °F 94% 30.20 in 10.0 mi Calm Calm - N/A   Overcast
8:45 PM 62.6 °F 60.8 °F 94% 30.20 in 10.0 mi Calm Calm - N/A   Overcast
9:05 PM 62.6 °F 60.8 °F 94% 30.20 in 10.0 mi Calm Calm - N/A   Overcast
9:25 PM 60.8 °F 60.8 °F 100% 30.22 in 10.0 mi Calm Calm - N/A   Mostly Cloudy
10:10 PM 60.8 °F 60.8 °F 100% 30.22 in 10.0 mi Calm Calm - N/A   Overcast
10:30 PM 62.6 °F 60.8 °F 94% 30.22 in 10.0 mi Calm Calm - N/A   Overcast
10:50 PM 62.6 °F 60.8 °F 94% 30.22 in 10.0 mi Calm Calm - N/A   Overcast
11:10 PM 60.8 °F 60.8 °F 100% 30.21 in 10.0 mi Calm Calm - N/A   Scattered Clouds
11:55 PM 60.8 °F 60.8 °F 100% 30.23 in 10.0 mi Calm Calm - N/A   Scattered Clouds